RH
100 94 89 83 86 91 85 80 73 76 83 76 77 80 80 79 80 80 87 88 96 96 81 83 83 82 77 75 74 71 77 76 77
93 95 87 83 82 87 87 90 90 80 77 75 78 80 78 75 79 82 93 95 96 96 87 81 82 82 81 77 78 79 80 84 78
79 79 86 84 85 83 89 89 90 87 77 76 79 79 78 78 75 77 88 88 96 95 91 76 77 80 84 84 82 81 79 78 77
87 90 82 82 80 88 87 94 97 89 81 84 85 83 80 74 76 80 84 90 92 97 96 80 75 78 82 84 87 87 82 81 81
83 86 90 67 79 90 92 93 100 87 85 93 90 86 80 77 81 85 91 91 95 95 91 92 93 83 78 85 86 88 90 91 89
84 80 75 84 82 85 85 95 90 78 85 95 91 84 79 82 86 87 90 92 92 92 90 90 96 93 88 86 90 90 96 90 83
88 84 76 74 73 83 85 84 68 72 85 96 90 83 82 84 89 89 83 88 89 89 90 88 91 89 90 95 100 98 86 74 66
90 88 87 82 77 74 84 73 72 82 94 96 90 86 84 90 91 91 83 89 92 90 90 90 89 92 86 86 90 88 72 62 57
74 76 90 83 83 78 78 76 76 81 99 98 95 92 92 94 91 93 83 80 85 89 89 91 95 97 82 89 96 72 64 59 56
76 80 84 88 87 85 82 81 80 87 96 99 98 93 93 92 87 88 80 82 82 88 94 92 98 85 83 97 73 69 69 68 66
73 78 82 87 89 86 80 80 78 80 93 97 100 98 99 96 97 92 87 80 78 78 92 93 97 97 98 98 90 78 80 78 76
70 73 81 87 92 90 85 89 79 73 92 95 98 95 96 93 86 84 75 82 81 90 99 98 94 96 95 96 99 96 95 99 99
71 72 75 85 88 91 82 78 80 72 86 90 90 87 91 88 86 80 67 66 74 82 97 91 99 95 96 97 96 98 92 89 89
69 70 71 80 90 88 84 82 76 78 82 88 88 87 85 85 82 79 76 72 74 72 82 90 94 95 91 94 97 97 96 96 97
64 66 68 73 87 91 86 84 88 84 85 89 85 84 87 88 86 84 82 80 79 79 78 80 89 87 89 92 95 96 86 95 91
63 60 63 69 79 91 90 92 88 91 84 83 84 82 81 80 81 82 83 83 82 80 81 80 79 88 83 94 98 96 99 87 94
61 57 57 65 81 94 91 87 93 89 85 80 81 90 80 76 75 72 72 75 77 77 80 84 88 98 91 86 99 100 99 99 100
56 54 53 64 78 92 89 87 88 90 80 72 70 95 84 84 77 73 68 65 67 70 73 82 88 95 94 91 92 86 88 98 99
52 51 50 60 70 88 90 87 81 80 80 77 81 74 73 85 87 76 70 65 61 60 64 74 86 90 91 93 92 88 81 90 96
50 49 47 49 66 74 86 89 85 76 73 72 80 71 74 73 79 88 81 70 60 52 48 54 69 89 92 92 88 82 83 88 90
Wind_Speed
7 8 7 6 7 5 6 6 7 8 7 10 12 13 13 12 12 13 12 13 12 13 13 13 12 11 13 14 13 14 13 12 13
10 8 8 7 7 6 6 6 6 7 7 9 10 12 12 11 11 12 12 11 11 11 12 12 11 10 10 10 10 11 10 10 9
9 9 9 9 9 7 7 6 6 6 7 9 11 12 11 11 11 11 11 10 10 10 11 12 11 10 10 9 9 9 8 8 6
6 8 9 9 10 9 8 8 7 7 8 11 13 12 11 12 12 12 11 10 10 9 10 10 11 11 10 10 8 7 7 6 5
7 9 8 10 11 9 10 10 8 9 10 12 14 13 12 13 13 12 11 10 8 9 9 10 9 10 10 10 9 8 7 5 4
11 11 8 9 10 11 9 9 8 8 11 14 13 13 12 12 13 12 11 9 7 8 8 10 10 11 11 11 11 10 8 6 5
12 12 14 12 11 9 10 10 7 9 11 14 13 13 14 14 14 11 8 9 6 7 9 10 10 11 12 12 13 11 9 8 7
14 13 12 13 14 12 11 9 9 10 13 16 15 14 14 14 15 13 8 8 8 7 8 9 10 12 11 10 8 9 8 7 5
12 15 16 15 14 14 12 11 12 11 12 12 13 14 15 15 15 16 13 8 9 7 8 9 12 13 9 9 10 9 7 5 4
11 12 16 16 17 17 16 14 13 12 11 12 13 13 12 11 12 13 13 11 9 8 8 9 12 10 7 10 8 6 4 3 3
11 12 13 15 16 15 15 16 16 14 13 12 11 10 11 10 11 11 11 11 6 5 5 7 9 11 13 9 7 6 5 4 2
13 13 13 14 16 16 15 16 17 16 13 11 11 8 8 7 8 8 4 4 8 9 15 10 7 9 9 11 11 10 10 11 10
14 14 14 15 17 18 17 17 16 16 13 11 9 8 7 7 7 7 8 7 4 6 9 14 13 8 10 10 12 13 14 16 15
15 15 15 16 18 19 20 18 19 17 14 13 11 9 7 7 7 7 7 6 6 7 4 4 13 12 8 10 13 14 14 14 16
15 15 17 17 19 21 20 20 19 17 18 15 12 8 7 7 7 6 6 6 6 6 6 6 4 5 10 8 10 11 10 12 13
17 17 18 20 20 22 22 21 22 20 20 18 13 9 6 6 7 6 6 7 7 6 7 8 6 7 9 11 9 11 14 10 12
18 18 19 20 22 23 24 25 26 21 25 10 7 2 1 3 5 6 6 7 7 7 7 8 10 12 13 13 15 12 14 12 11
18 18 19 20 23 26 26 27 29 25 26 21 5 2 3 3 4 4 5 5 6 6 7 8 10 12 12 14 13 11 7 8 8
18 18 19 20 23 27 28 29 29 30 29 20 5 3 6 3 1 5 6 8 8 8 9 9 10 11 12 12 11 8 5 3 5
18 19 19 21 22 24 29 31 32 29 32 22 10 5 5 6 3 2 5 11 12 11 10 10 10 11 11 11 11 12 8 4 4
Wind_Direction
174 180 164 141 132 136 125 124 124 122 123 120 115 116 112 110 104 96 97 96 96 97 105 105 110 112 107 105 102 106 113 118 111
195 192 184 172 162 153 143 141 135 129 130 123 122 121 115 107 105 100 97 100 102 104 104 109 112 113 111 109 108 110 114 112 111
192 192 190 180 169 165 160 149 142 145 138 129 137 129 117 108 104 104 101 99 107 108 114 114 116 117 115 113 114 117 111 97 90
150 175 182 179 172 172 162 141 142 142 139 137 140 132 121 110 102 105 104 102 106 108 114 114 117 120 124 126 125 118 105 101 100
148 145 155 178 170 169 159 161 130 137 142 143 141 134 125 109 100 99 96 106 108 112 115 118 117 119 121 127 130 124 119 131 122
162 161 164 158 158 163 166 150 147 148 149 148 143 136 123 113 100 96 94 93 107 119 120 121 115 116 119 121 118 125 129 118 103
174 170 168 173 179 169 162 162 175 187 161 150 146 140 130 122 108 97 97 88 98 132 133 131 124 117 115 111 105 115 118 107 91
187 175 178 178 178 171 167 180 182 168 164 156 152 141 132 121 113 102 92 101 103 128 147 137 131 125 127 124 134 122 116 104 92
200 197 188 184 182 185 185 181 181 174 166 158 150 143 134 125 119 108 100 83 81 99 134 141 133 128 134 138 118 115 111 103 82
187 187 192 193 190 191 189 180 180 170 164 157 151 148 144 136 127 121 115 92 94 90 109 135 139 134 139 124 115 102 87 79 74
194 187 185 186 187 187 190 189 183 175 169 160 148 145 139 136 129 120 115 109 98 95 97 137 143 131 133 122 101 85 70 57 71
206 198 190 184 180 177 172 170 178 175 164 153 144 146 150 156 157 140 139 122 121 100 82 81 138 144 138 125 103 93 79 74 71
206 203 197 189 185 185 177 171 163 180 168 152 151 152 148 139 139 148 173 224 163 193 95 103 96 108 123 121 109 96 93 89 85
212 209 200 193 189 185 180 178 179 180 178 158 141 136 145 141 139 140 143 175 181 191 173 134 105 109 108 116 116 102 96 89 80
216 212 204 197 192 187 184 185 174 180 167 141 126 140 136 132 138 142 150 162 171 169 196 212 196 140 120 125 118 112 112 99 90
217 213 207 202 198 192 189 179 172 164 169 140 115 108 119 131 135 140 147 156 158 163 174 185 189 160 159 139 123 129 113 109 96
218 216 210 205 199 193 189 185 166 177 175 158 130 144 164 142 143 147 149 151 151 157 162 162 163 158 150 161 126 117 104 99 88
221 219 216 208 203 198 194 190 181 171 177 165 156 130 203 153 200 194 180 172 170 167 166 170 172 175 168 168 160 174 150 87 84
223 223 220 216 209 207 202 199 196 187 185 193 187 143 141 154 196 222 214 208 201 193 186 180 179 179 181 184 176 166 177 122 79
226 226 224 221 218 215 212 206 204 204 199 195 183 178 161 138 130 185 214 221 214 208 201 196 194 189 189 190 190 197 162 152 116